Wind_Speed
68 68 63 59 59 56 56 53 51 51 44 45 41 39 40 38 42 44 48 48 50 52 59 62 59 55 49 47 46 44 42 40 40 40 40 37 37 36 37 35 36 38 39 41
70 69 62 61 60 58 55 53 50 47 44 43 42 43 42 38 42 48 47 48 49 52 56 57 57 54 51 48 48 45 44 43 41 41 42 40 37 37 37 38 36 34 39 42
68 62 56 58 57 57 55 51 49 46 38 39 44 45 42 41 44 46 47 46 49 49 53 54 50 48 48 45 45 45 45 44 44 44 42 43 43 44 41 38 39 41 44 47
61 57 59 56 54 54 52 47 45 39 33 40 42 44 40 38 41 44 43 40 43 46 46 46 45 41 42 45 46 45 45 45 46 45 44 44 45 44 42 38 37 41 42 45
56 57 57 53 54 48 45 38 35 32 34 37 40 44 36 38 38 35 36 38 40 42 43 43 39 39 39 42 44 43 42 43 41 43 44 39 37 37 37 36 36 37 39 45
41 44 48 39 41 41 41 35 36 35 37 42 40 44 37 39 34 26 28 31 35 29 33 32 31 35 36 37 37 36 33 33 36 39 37 31 27 23 24 26 28 30 33 35
37 42 43 45 46 42 46 43 42 41 46 48 43 44 37 33 33 31 26 23 20 24 32 32 30 26 23 24 26 27 30 32 30 26 20 19 17 15 19 21 20 19 20 17
38 41 46 44 46 47 51 47 51 50 50 47 44 45 38 36 30 30 28 26 24 27 30 29 17 15 17 20 24 27 30 26 20 16 15 13 13 17 16 15 16 17 18 19
34 38 42 45 43 46 47 46 43 44 44 46 48 48 38 35 28 31 29 30 31 30 28 18 16 15 17 17 18 22 21 19 18 18 15 15 15 15 16 17 19 20 23 25
32 35 42 48 43 46 43 42 50 46 43 40 45 44 44 31 31 34 35 35 31 24 23 21 21 24 19 18 19 20 22 24 25 18 13 19 20 19 21 22 24 27 33 34
32 36 37 47 50 53 49 50 51 48 50 43 43 43 42 33 35 37 38 32 33 32 25 24 30 23 22 21 21 19 20 17 16 17 21 20 23 25 28 29 32 36 39 40
33 31 23 38 47 51 50 51 50 50 47 41 38 39 36 36 39 38 38 35 35 37 28 25 26 30 29 27 22 21 21 19 21 25 24 26 29 32 35 38 39 41 43 44
39 40 31 37 41 49 52 48 48 47 42 42 37 38 37 35 35 37 38 33 28 26 25 25 28 32 39 31 25 21 19 23 27 25 27 31 34 37 40 42 45 46 46 46
27 42 36 36 41 43 51 50 48 43 41 38 37 41 37 31 29 33 32 27 25 26 25 28 27 28 33 33 28 26 24 26 28 25 25 32 37 38 38 39 40 42 43 43
27 30 31 36 41 39 47 52 50 45 42 40 38 39 36 34 31 30 28 30 29 28 28 28 28 29 14 27 15 21 25 29 31 28 31 33 35 36 37 37 38 39 41 42
29 28 33 40 41 41 47 51 47 42 37 34 40 37 36 33 33 35 26 25 17 17 20 21 10 20 21 19 27 18 18 23 28 32 37 37 38 39 41 42 43 43 44 45
24 28 39 40 38 40 45 49 47 41 38 35 38 40 40 34 28 23 18 14 13 14 16 22 23 17 12 17 15 17 23 26 32 37 37 40 42 42 44 44 44 45 45 46
27 32 32 40 36 34 38 41 42 39 40 33 29 28 30 30 29 27 24 21 19 21 21 10 8 10 10 12 19 23 28 30 32 36 38 40 42 43 44 44 44 44 44 46
32 25 29 34 35 27 33 38 39 40 39 33 31 29 24 20 23 22 17 14 17 28 25 18 13 17 18 20 23 26 27 30 34 37 39 41 41 42 42 42 43 42 42 43
38 31 25 31 30 28 28 33 38 36 35 32 32 28 20 20 18 18 16 13 10 17 21 19 22 22 25 21 24 27 31 33 33 35 36 37 39 41 40 40 41 43 44 44
28 29 24 31 31 28 25 30 34 36 28 24 25 28 18 16 18 16 17 13 12 12 15 18 23 24 25 27 30 31 31 32 31 33 36 36 34 36 40 42 42 42 41 40
28 31 26 23 30 28 29 28 29 24 22 21 20 21 17 17 18 15 14 14 12 16 14 20 22 24 26 28 30 30 28 29 32 35 35 32 36 39 38 42 44 44 42 39
34 29 20 19 16 21 30 27 31 28 22 21 21 17 20 21 15 16 18 17 18 18 18 20 23 26 28 28 27 29 32 36 37 37 34 35 36 38 38 37 35 33 30 29
28 29 26 22 19 25 21 19 33 24 18 20 24 23 22 21 19 16 16 17 16 16 18 21 23 24 26 28 30 31 34 36 34 30 32 33 35 27 27 30 31 26 23 20
21 23 28 20 24 21 31 31 30 27 24 20 22 21 21 21 18 17 15 15 16 17 18 21 23 26 27 28 29 33 35 33 27 29 29 29 20 22 23 27 21 17 15 11
24 24 22 28 26 19 21 23 25 21 19 19 18 17 17 17 15 14 13 14 14 16 19 21 24 26 27 29 30 31 33 27 28 25 26 18 16 15 14 14 7 6 10 5
Wind_Direction
243 242 243 245 246 247 245 246 247 247 245 248 247 246 243 233 237 238 238 232 230 233 238 248 251 254 258 262 266 267 266 266 267 264 265 264 261 262 265 268 269 266 266 265
239 241 241 242 241 239 240 244 244 245 244 242 240 239 236 228 225 233 234 234 234 234 237 239 244 252 256 259 263 265 268 270 270 270 272 272 272 273 273 272 268 262 260 263
235 238 242 240 240 239 238 237 238 239 238 234 236 239 239 238 234 231 231 231 234 234 236 240 242 244 249 255 259 262 264 267 270 271 274 277 278 274 273 269 265 266 264 262
235 232 234 233 235 236 237 232 233 233 228 229 233 237 238 237 239 235 232 231 233 231 235 236 237 240 245 249 253 257 262 265 269 272 273 270 270 273 273 269 262 264 261 264
238 233 233 227 226 227 229 227 225 220 221 225 231 236 230 234 235 232 230 232 232 238 240 246 244 240 241 244 248 253 258 262 268 268 271 275 275 273 271 267 262 262 261 260
227 227 228 224 217 218 217 212 214 212 213 221 222 232 220 227 228 219 221 222 225 226 230 234 237 240 241 245 250 254 259 264 264 264 267 269 268 254 252 258 262 266 266 260
209 211 213 210 206 208 208 201 209 207 207 223 205 222 222 218 211 208 211 219 220 223 235 233 234 237 239 243 246 246 248 251 254 259 253 250 251 245 249 246 247 253 252 255
201 205 203 207 204 205 207 206 207 207 208 214 196 214 219 216 212 209 208 216 226 221 229 235 236 231 232 237 239 241 238 237 242 243 250 246 243 247 243 251 259 268 283 291
203 204 200 200 196 199 204 207 205 210 213 213 201 211 216 215 213 207 207 216 224 217 229 233 213 213 212 223 226 209 213 226 240 249 245 255 267 271 273 273 279 285 292 290
204 206 200 194 190 195 197 197 193 196 197 209 202 211 222 211 218 217 208 215 227 233 237 241 219 220 215 213 212 217 223 232 236 242 255 260 266 277 286 290 290 287 284 287
212 207 199 199 195 191 194 188 193 198 195 200 201 210 216 213 220 224 216 222 234 238 237 239 228 233 231 221 222 232 243 253 268 272 263 277 289 289 287 288 284 284 285 286
208 208 194 191 195 195 202 194 194 196 195 196 202 211 215 219 222 228 235 241 236 236 236 243 248 258 239 232 230 232 238 258 265 265 275 279 279 280 282 284 284 283 285 287
213 218 195 200 193 198 198 198 194 192 195 199 203 210 214 217 219 221 226 229 232 238 246 247 255 248 245 230 222 229 243 250 255 264 276 279 282 283 284 285 286 287 289 291
188 187 200 206 195 198 197 195 191 194 197 190 199 202 203 209 210 221 228 229 236 249 245 242 240 267 247 228 222 229 239 250 255 264 291 289 286 289 290 289 287 286 286 287
172 194 196 197 198 202 197 192 192 196 198 198 195 202 204 213 213 218 226 228 236 253 246 260 256 245 276 244 236 263 254 256 257 258 284 286 281 283 285 286 287 288 289 290
181 189 194 197 203 199 196 192 195 200 204 203 198 203 202 216 222 230 248 248 255 248 286 276 274 297 294 246 267 284 275 265 255 258 281 281 282 283 285 286 286 287 287 287
183 193 194 196 196 201 197 196 198 204 210 212 208 209 212 217 220 223 237 253 269 272 252 265 284 273 246 274 265 272 270 263 262 270 275 277 280 282 283 284 284 285 286 286
163 193 191 189 189 199 202 194 202 202 206 203 207 210 220 227 229 235 252 259 263 245 245 236 259 244 252 266 270 270 270 271 270 271 274 277 279 280 281 283 285 286 286 287
158 193 183 189 185 191 199 203 200 202 206 199 210 216 220 227 236 235 249 252 249 236 231 226 241 240 255 265 266 268 273 276 275 275 277 280 283 286 287 285 285 286 288 287
171 185 184 186 188 192 200 200 203 206 213 216 212 215 215 221 217 215 205 201 213 213 211 241 256 259 280 276 277 282 281 282 284 286 288 290 289 288 288 289 290 290 290 290
180 170 170 188 200 198 197 197 200 204 207 212 210 211 217 181 195 203 219 240 244 236 234 241 256 271 283 288 290 292 293 293 294 293 292 292 291 293 294 296 296 295 293 290
172 169 176 180 192 185 194 186 192 197 192 192 192 203 184 196 216 222 236 258 244 267 260 267 273 281 288 293 295 295 296 297 299 298 298 297 301 301 299 297 295 291 289 289
184 190 200 184 182 189 201 193 200 187 200 192 194 185 193 213 226 235 246 256 266 274 284 292 298 301 300 300 302 305 306 305 302 303 302 302 302 302 301 299 298 298 296 288
182 182 171 155 140 149 153 181 192 181 168 176 192 205 211 220 228 243 258 271 280 287 293 295 298 299 304 307 309 310 310 306 302 298 301 302 303 303 303 302 305 301 294 290
159 154 168 160 156 148 146 144 156 172 176 182 190 194 206 219 234 248 256 268 279 286 293 296 299 299 299 301 300 302 306 306 301 300 302 304 301 307 311 316 315 313 305 306
177 166 159 156 154 154 169 165 173 180 190 197 203 212 226 236 243 253 262 272 278 289 291 293 294 293 293 294 300 304 310 301 299 301 304 297 302 317 314 307 292 322 332 329
Height
5664 5668 5679 5691 5697 5705 5709 5714 5718 5722 5726 5727 5733 5737 5742 5748 5752 5761 5765 5769 5775 5778 5782 5779 5784 5786 5789 5793 5795 5798 5800 5804 5806 5809 5810 5813 5817 5818 5816 5815 5813 5811 5811 5812
5643 5652 5666 5672 5679 5685 5694 5701 5707 5712 5716 5719 5723 5726 5731 5735 5742 5747 5754 5760 5765 5768 5770 5775 5778 5780 5782 5785 5786 5789 5791 5794 5796 5798 5799 5801 5803 5804 5803 5805 5805 5803 5802 5801
5627 5646 5651 5658 5665 5673 5682 5690 5695 5702 5706 5710 5713 5716 5724 5730 5735 5738 5741 5748 5754 5758 5760 5763 5770 5773 5776 5779 5779 5780 5782 5784 5786 5786 5789 5791 5792 5793 5795 5795 5796 5795 5794 5793
5610 5625 5630 5640 5651 5661 5671 5679 5684 5691 5696 5700 5704 5708 5716 5722 5726 5732 5736 5741 5746 5747 5749 5754 5761 5767 5770 5770 5770 5772 5774 5775 5776 5779 5780 5782 5782 5784 5784 5785 5785 5785 5785 5783
5605 5610 5613 5625 5641 5648 5660 5670 5676 5682 5686 5691 5698 5701 5712 5714 5719 5725 5728 5733 5737 5740 5741 5746 5753 5758 5761 5762 5763 5764 5767 5768 5768 5767 5767 5768 5770 5771 5772 5774 5775 5777 5774 5773
5590 5601 5604 5626 5630 5641 5648 5658 5664 5671 5676 5681 5691 5693 5704 5707 5715 5719 5723 5726 5729 5733 5735 5739 5743 5748 5752 5754 5756 5757 5759 5758 5758 5758 5759 5761 5762 5763 5763 5764 5765 5765 5765 5765
5579 5586 5599 5607 5617 5626 5634 5644 5651 5658 5663 5672 5682 5684 5695 5701 5708 5712 5717 5721 5725 5729 5731 5734 5738 5741 5744 5746 5748 5750 5750 5750 5750 5752 5754 5755 5758 5759 5759 5760 5762 5762 5762 5760
5569 5577 5586 5599 5609 5620 5624 5633 5640 5646 5655 5666 5677 5678 5686 5694 5702 5707 5712 5715 5719 5722 5726 5729 5732 5734 5736 5739 5740 5741 5742 5745 5748 5749 5751 5752 5754 5755 5755 5755 5755 5756 5754 5753
5565 5574 5583 5591 5603 5610 5617 5624 5642 5648 5655 5662 5672 5675 5680 5691 5698 5702 5706 5709 5712 5715 5719 5724 5726 5729 5731 5731 5733 5735 5739 5741 5744 5744 5746 5748 5750 5751 5751 5751 5750 5747 5747 5748
5562 5569 5575 5587 5596 5603 5610 5625 5627 5634 5646 5654 5665 5672 5677 5688 5692 5696 5700 5705 5710 5713 5716 5720 5723 5723 5725 5728 5731 5734 5734 5735 5737 5736 5739 5743 5743 5744 5743 5742 5740 5741 5742 5741
5559 5565 5574 5578 5583 5595 5603 5610 5618 5632 5640 5647 5657 5666 5673 5683 5687 5690 5696 5702 5706 5709 5713 5715 5717 5722 5723 5723 5724 5725 5727 5728 5728 5731 5735 5734 5735 5735 5736 5735 5736 5735 5733 5731
5556 5561 5567 5575 5583 5595 5601 5607 5616 5625 5636 5645 5654 5663 5670 5676 5680 5686 5692 5696 5700 5704 5709 5712 5716 5717 5717 5716 5717 5720 5723 5723 5726 5727 5728 5730 5730 5730 5729 5728 5726 5724 5722 5720
5552 5559 5565 5573 5582 5588 5597 5608 5617 5625 5634 5642 5651 5658 5664 5669 5673 5680 5684 5690 5695 5701 5706 5707 5709 5710 5709 5709 5711 5714 5715 5718 5720 5722 5722 5722 5721 5719 5718 5716 5714 5712 5711 5709
5545 5556 5563 5572 5578 5588 5597 5605 5615 5622 5631 5640 5648 5653 5661 5666 5672 5676 5681 5687 5691 5695 5699 5699 5701 5704 5704 5705 5707 5708 5710 5712 5714 5716 5715 5714 5713 5712 5710 5708 5706 5704 5702 5699
5548 5556 5564 5571 5581 5587 5596 5603 5611 5620 5628 5638 5645 5652 5659 5665 5670 5673 5679 5682 5686 5691 5693 5694 5695 5695 5695 5699 5702 5705 5703 5705 5707 5708 5707 5707 5706 5704 5702 5699 5696 5693 5691 5688
5548 5556 5564 5571 5578 5585 5595 5603 5612 5621 5628 5635 5643 5650 5657 5661 5666 5671 5676 5680 5685 5688 5688 5688 5688 5691 5694 5696 5697 5699 5698 5698 5699 5699 5699 5699 5698 5696 5693 5690 5687 5684 5681 5679
5549 5556 5563 5570 5578 5586 5595 5601 5610 5619 5628 5634 5640 5648 5654 5659 5665 5670 5674 5680 5682 5684 5684 5684 5685 5687 5689 5689 5691 5692 5693 5694 5693 5693 5692 5691 5689 5684 5682 5679 5676 5672 5670 5667
5549 5555 5562 5568 5578 5586 5593 5603 5611 5617 5624 5633 5641 5646 5651 5657 5662 5668 5672 5676 5676 5677 5679 5679 5681 5684 5684 5685 5686 5687 5688 5687 5686 5685 5683 5680 5677 5674 5672 5668 5664 5661 5657 5655
5549 5554 5561 5569 5578 5586 5593 5599 5607 5615 5623 5630 5638 5644 5650 5655 5660 5665 5668 5669 5669 5670 5673 5677 5680 5681 5682 5682 5682 5683 5681 5679 5677 5676 5673 5670 5667 5663 5659 5655 5652 5649 5645 5643
5549 5557 5566 5572 5580 5585 5593 5599 5607 5616 5622 5629 5635 5642 5648 5652 5656 5660 5664 5666 5666 5667 5670 5672 5673 5675 5674 5675 5675 5673 5672 5670 5667 5664 5660 5657 5655 5651 5647 5643 5639 5635 5631 5629
5553 5561 5568 5574 5581 5588 5592 5598 5606 5613 5624 5627 5633 5639 5644 5648 5653 5656 5659 5661 5664 5665 5667 5668 5669 5669 5668 5667 5666 5664 5662 5659 5655 5653 5651 5647 5644 5640 5635 5629 5624 5620 5617 5615
5556 5562 5568 5575 5581 5589 5592 5599 5607 5615 5619 5627 5633 5639 5643 5647 5649 5650 5653 5656 5660 5661 5663 5664 5664 5663 5662 5660 5658 5656 5653 5651 5647 5644 5641 5637 5632 5627 5621 5617 5612 5609 5606 5605
5560 5567 5571 5577 5583 5589 5593 5598 5607 5613 5620 5626 5632 5637 5641 5643 5646 5649 5651 5654 5656 5657 5656 5655 5654 5653 5653 5651 5648 5646 5642 5639 5637 5632 5628 5626 5622 5617 5613 5607 5603 5600 5598 5596
5561 5567 5573 5581 5582 5586 5592 5596 5604 5614 5621 5626 5631 5634 5638 5642 5645 5647 5649 5650 5649 5649 5649 5649 5649 5647 5645 5643 5640 5637 5634 5631 5628 5626 5623 5619 5614 5610 5606 5601 5597 5593 5590 5589
5566 5571 5576 5581 5587 5590 5595 5602 5610 5616 5621 5625 5630 5633 5637 5641 5643 5645 5644 5645 5645 5645 5644 5644 5643 5642 5641 5640 5638 5635 5631 5626 5623 5620 5616 5613 5609 5606 5601 5597 5594 5591 5589 5587
5568 5575 5580 5586 5590 5596 5601 5604 5610 5616 5621 5624 5628 5632 5636 5638 5640 5641 5641 5641 5640 5639 5640 5640 5639 5638 5637 5635 5632 5628 5624 5621 5617 5614 5611 5608 5606 5603 5600 5597 5594 5592 5590 5587